Pittsfield, MA

4:00 AM EDT on May 28, 2017 (GMT -0400)
Pittsfield Municipal

Weather History for KPSF - August, 2013

Change the Weather History Date:

Saturday, August 24, 2013

  Actual Average Record
Temperature  
Mean Temperature 60 °F 66 °F  
Max Temperature 75 °F 76 °F 91 °F (1935)
Min Temperature 45 °F 55 °F 44 °F (1957)
Degree Days  
Heating Degree Days 5 2  
Month to date heating degree days 44 27  
Since 1 June heating degree days 160 159  
Since 1 July heating degree days 52 58  
Cooling Degree Days 0 2  
Month to date cooling degree days 28 82  
Year to date cooling degree days 364 259  
Since 1 June cooling degree days 339 246  
Growing Degree Days 9 (Base 50)    
Moisture  
Dew Point 49 °F    
Average Humidity 70    
Maximum Humidity 96    
Minimum Humidity 44    
Precipitation  
Precipitation 0.00 in 0.13 in 0.90 in (1945)
Month to date precipitation 3.43 3.24  
Year to date precipitation 26.70 28.93  
Sea Level Pressure  
Sea Level Pressure 30.25 in    
Wind  
Wind Speed 2 mph (West)    
Max Wind Speed 10 mph    
Max Gust Speed 13 mph    
Visibility 10 miles    
Events      
T = Trace of Precipitation, MM = Missing Value Source: NWS Daily Summary

Daily Weather History Graph

Daily Weather History Graph

Search for Another Location

Airport or City:

Trip Planner

Search our weather history database for the weather conditions in past years. The results will help you decide how hot, cold, wet, or windy it might be!

Date:

Astronomy

Aug. 24, 2013 Rise Set
Actual Time 6:09 AM EDT 7:40 PM EDT
Civil Twilight 5:40 AM EDT 8:09 PM EDT
Nautical Twilight 5:04 AM EDT 8:44 PM EDT
Astronomical Twilight 4:26 AM EDT 9:22 PM EDT
Moon 9:25 PM EDT (8/24) 10:13 AM EDT (8/24)
Length of Visible Light 14h 29m
Length of Day
13h 30m
Waning Gibbous, 84% of the Moon is Illuminated
Aug 24
Waning Gibbous
Aug 28
Last Quarter
Sep 5
New
Sep 12
First Quarter
Sep 19
Full

Hourly Weather History & Observations

Time (EDT) Temp. Dew Point Humidity Pressure Visibility Wind Dir Wind Speed Gust Speed Precip Events Conditions
12:54 AM 51.1 °F 46.9 °F 86% 30.14 in 10.0 mi Calm Calm - N/A   Clear
1:54 AM 50.0 °F 46.9 °F 89% 30.15 in 10.0 mi Calm Calm - N/A   Clear
2:54 AM 48.9 °F 45.0 °F 86% 30.16 in 10.0 mi Calm Calm - N/A   Clear
3:54 AM 46.9 °F 45.0 °F 93% 30.18 in 10.0 mi Calm Calm - N/A   Clear
4:54 AM 46.9 °F 45.0 °F 93% 30.21 in 10.0 mi Calm Calm - N/A   Clear
5:54 AM 45.0 °F 43.0 °F 93% 30.23 in 7.0 mi Calm Calm - N/A   Clear
6:54 AM 48.0 °F 46.0 °F 93% 30.26 in 10.0 mi Calm Calm - N/A   Clear
7:54 AM 54.0 °F 48.9 °F 83% 30.27 in 10.0 mi Calm Calm - N/A   Clear
8:54 AM 57.9 °F 50.0 °F 75% 30.27 in 10.0 mi Calm Calm - N/A   Clear
9:54 AM 63.0 °F 50.0 °F 63% 30.28 in 10.0 mi Calm Calm - N/A   Clear
10:54 AM 68.0 °F 48.0 °F 49% 30.28 in 10.0 mi NNE 4.6 mph - N/A   Clear
11:54 AM 69.1 °F 48.9 °F 49% 30.28 in 10.0 mi Variable 3.5 mph - N/A   Clear
12:54 PM 69.1 °F 50.0 °F 51% 30.27 in 10.0 mi Calm Calm - N/A   Clear
1:54 PM 71.1 °F 48.0 °F 44% 30.27 in 10.0 mi SSW 4.6 mph - N/A   Clear
2:54 PM 73.0 °F 53.1 °F 49% 30.27 in 10.0 mi WNW 6.9 mph - N/A   Clear
3:54 PM 73.9 °F 52.0 °F 46% 30.26 in 10.0 mi North 4.6 mph - N/A   Clear
4:54 PM 73.0 °F 54.0 °F 51% 30.26 in 10.0 mi NNW 8.1 mph - N/A   Clear
5:54 PM 72.0 °F 53.1 °F 51% 30.26 in 10.0 mi West 6.9 mph - N/A   Clear
6:54 PM 69.1 °F 52.0 °F 54% 30.26 in 10.0 mi West 4.6 mph - N/A   Clear
7:54 PM 64.9 °F 52.0 °F 63% 30.28 in 10.0 mi SW 5.8 mph - N/A   Clear
8:54 PM 59.0 °F 51.1 °F 75% 30.30 in 10.0 mi SW 3.5 mph - N/A   Clear
9:54 PM 55.9 °F 53.1 °F 90% 30.31 in 10.0 mi Calm Calm - N/A   Clear
10:54 PM 54.0 °F 52.0 °F 93% 30.32 in 10.0 mi Calm Calm - N/A   Clear
11:54 PM 52.0 °F 50.0 °F 93% 30.32 in 10.0 mi Calm Calm - N/A   Clear